SCP
0 0 0 0 0 0 0 0 0 0 0 0 0 0 0 0 0 0 0 0 0 0 0 0 0 0 0 0 0 0 0 0 0 0 -0 -0 0 0 0 0 0 0 -0 -0 -0 0 -0 0 -0 0 0 0 0 0
0 0 0 0 0 0 0 0 0 0 0 0 0 0 0 0 0 0 0 0 0 0 0 0 0 -0 0 0 0 0 0 0 0 0 -0 -0 -0 0 0 0 0 -0 -0 -0 -0 0 0 0 0 0 0 0 0 0
0 0 0 0 0 0 0 0 0 0 0 0 0 0 0 0 0 0 0 0 0 0 0 0 0 0 0 0 0 0 0 0 0 0 0 0 -0 0 0 0 0 -0 -0 0 -0 0 0 0 0 0 0 0 0 0
0 0 0 0 0 0 0 0 0 0 0 0 0 0 0 0 0 0 0 0 0 0 0 0 0 0 0 0 0 0 0 0 0 0 0 -0 -0 0 0 0 0 -0 -0 0 0 0 0 0 0 0 0 0 0 0
0 0 0 0 0 0 0 0 0 0 0 0 0 0 0 0 0 0 0 0 0 0 0 0 0 0 0 0 0 0 0 0 0 0 -0 -0 -0 -0 0 0 0 -0 0 0 0 0 0 0 0 0 0 0 0 0
0 0 0 0 0 0 0 0 0 0 0 0 0 0 0 0 0 0 0 0 0 0 0 0 0 0 0 0 0 0 0 0 0 0 -0 -0 0 -0 0 -0 0 0 0 0 0 0 0 -0 0 0 0 0 0 0
0 0 0 0 0 0 0 0 0 0 0 0 0 0 0 0 0 0 0 0 0 0 0 0 0 0 0 0 0 0 0 0 0 0 -0 -0 -0 -0 -0 -0 0 0 0 0 0 0 0 0 0 0 0 0 0 0
0 0 0 0 0 0 0 0 0 0 0 0 0 0 0 0 0 0 0 0 0 0 0 0 0 0 0 0 0 0 0 0 0 0 -0 -0 -0 -0 -0 0 0 0 0 0 0 0 0 0 0 -0 -0 0 0 0
0 0 0 0 0 0 0 0 0 0 0 0 0 0 0 0 0 0 0 0 0 0 0 0 0 0 0 0 0 0 0 0 0 0 -0 -0 -0 -0 -0 -0 0 0 0 0 0 0 0 0 0 0 0 0 0 0
0 0 0 0 0 0 0 0 0 0 0 0 0 0 0 0 0 0 0 0 0 0 0 0 0 0 0 0 0 0 0 0 0 0 0 -0 -0 -0 -0 -0 0 0 0 0 0 0 0 0 0 0 0 0 0 0
0 0 0 0 0 0 0 0 0 0 0 0 0 0 0 0 0 0 0 0 0 0 0 0 0 -0 0 0 0 0 0 0 0 0 0 -0 -0 -0 0 -0 -0 0 0 0 0 0 0 0 0 0 0 0 0 0
0 0 0 0 0 0 0 0 0 0 0 0 0 0 0 0 0 0 0 0 0 0 0 0 0 0 0 0 0 0 0 0 0 0 0 -0 0 -0 -0 -0 -0 0 0 0 0 0 0 0 0 0 0 0 0 0
0 0 0 0 0 0 0 0 0 0 0 0 0 0 0 0 0 0 0 0 0 0 0 0 0 0 0 0 0 0 0 0 0 0 0 -0 0 0 -0 -0 -0 0 0 0 0 0 0 0 0 0 0 0 0 0
0 0 0 0 0 0 0 0 0 0 0 0 0 0 0 0 0 0 0 0 0 0 0 0 0 0 0 0 0 0 0 0 0 0 0 0 -0 -0 0 -0 -0 -0 0 0 0 0 0 0 0 0 0 0 0 0
0 0 0 0 0 0 0 0 0 0 0 0 0 0 0 0 0 0 0 0 0 -0 0 0 0 0 0 0 0 0 0 0 0 0 0 0 -0 -0 -0 -0 0 0 0 0 0 0 0 0 0 0 0 0 0 0
0 0 0 0 0 0 0 0 0 0 0 0 0 0 0 0 0 0 0 0 -0 -0 0 0 0 0 0 0 0 0 0 0 0 0 0 0 -0 -0 -0 0 0 -0 0 0 0 0 0 0 0 0 0 0 0 0
0 0 0 0 0 0 0 0 0 0 0 0 0 0 0 0 0 0 0 -0 -0 -0 -0 0 0 0 0 0 0 0 0 0 0 0 0 0 -0 -0 -0 0 0 0 -0 0 0 0 0 0 0 0 0 0 0 0
0 0 0 0 0 0 0 0 0 0 0 0 0 0 0 0 0 0 0 -0 -0 -0 0 0 0 0 0 0 0 0 0 0 0 0 0 0 -0 -0 0 0 0 0 0 0 -0 0 0 0 0 0 0 0 0 0
0 0 0 0 0 0 0 0 0 0 0 0 0 0 0 0 0 0 0 0 -0 -0 0 0 0 0 0 0 0 0 0 0 0 0 0 -0 -0 -0 -0 0 0 0 -0 -0 -0 -0 -0 -0 0 0 0 0 0 0
-0 0 0 0 0 0 0 0 0 0 0 0 0 0 0 0 0 -0 -0 -0 0 0 0 0 0 0 0 0 0 0 0 0 0 0 0 -0 -0 -0 -0 -0 -0 -0 -0 -0 0 0 0 0 0 0 0 0 0 0
0 0 0 0 0 0 0 0 0 0 0 0 0 0 0 0 0 0 -0 0 0 0 0 0 0 0 0 0 0 0 0 0 0 0 0 -0 -0 -0 -0 -0 -0 -0 -0 0 0 0 0 0 0 0 0 0 0 0
0 0 0 0 0 0 0 0 0 0 0 0 0 0 0 0 0 0 0 0 0 0 0 0 0 0 0 0 0 0 0 0 0 0 0 -0 -0 -0 -0 0 -0 0 0 0 0 0 -0 0 0 0 0 0 0 0
0 0 0 0 0 0 0 0 0 0 0 0 0 0 0 0 0 0 0 0 0 0 0 0 0 0 0 0 0 0 0 0 0 0 -0 -0 -0 -0 -0 -0 0 0 0 0 0 0 0 0 0 0 0 0 0 0
0 0 0 0 0 0 0 0 0 0 0 0 0 0 0 0 0 0 0 0 0 0 0 0 0 0 0 0 0 0 0 0 0 0 0 0 -0 -0 -0 0 0 0 0 0 0 0 0 0 0 0 0 0 0 0
0 0 0 0 0 0 0 0 0 0 0 0 0 0 0 0 0 0 0 0 0 0 0 0 0 0 0 0 0 0 0 0 0 0 0 0 0 0 -0 0 0 0 0 0 0 0 0 0 0 0 -0 -0 -0 0
0 0 0 -0 0 0 0 0 0 0 0 0 0 0 0 0 0 0 0 0 0 0 0 0 0 0 0 0 0 0 0 0 0 0 0 0 0 0 -0 -0 0 0 0 0 0 0 0 0 0 -0 -0 -0 -0 -0
0 0 0 0 0 0 0 0 0 0 0 0 0 0 0 0 0 0 0 0 0 0 0 0 0 0 0 0 0 0 0 0 0 0 0 0 0 0 0 -0 0 0 0 0 0 0 0 0 0 0 -0 -0 -0 -0
0 0 0 0 0 0 0 0 0 0 0 0 0 0 0 0 0 0 0 0 0 0 0 0 0 0 0 0 0 0 0 0 0 0 0 0 0 0 0 0 0 0 0 0 0 0 0 0 0 0 0 -0 0 0
0 0 0 0 0 0 0 0 0 0 0 0 0 0 0 0 0 0 0 0 0 0 0 0 0 0 0 0 0 0 0 -0 -0 -0 0 0 0 0 0 0 0 0 0 0 0 0 -0 -0 0 0 0 0 0 0
0 0 0 0 0 0 0 0 0 0 0 0 0 0 0 0 0 0 0 0 0 0 0 0 0 0 0 -0 0 0 0 0 0 0 0 0 0 0 0 0 0 0 0 0 0 0 0 0 0 0 0 0 0 0
0 0 0 0 0 0 0 0 0 0 0 0 0 0 0 0 0 0 0 0 0 0 0 0 0 0 0 0 0 0 0 0 0 0 0 0 0 0 0 0 0 0 0 0 0 0 -0 0 0 0 0 0 0 0
0 0 0 0 0 0 0 0 0 0 0 0 0 0 0 0 0 0 0 0 0 0 0 0 0 0 0 0 0 0 0 0 0 0 0 0 0 0 0 0 0 0 0 0 0 0 0 0 0 0 0 0 0 0
0 0 0 0 0 0 0 0 0 0 0 0 0 0 0 0 0 0 0 0 0 0 0 0 0 0 0 0 0 -0 0 0 0 0 -0 0 -0 -0 -0 0 0 0 0 0 0 0 0 0 0 0 0 0 0 0
Wind_Speed_500mb
65 66 64 64 62 61 60 58 55 48 51 51 50 47 51 48 45 35 21 19 12 17 42 29 23 30 27 25 13 34 22 15 7 13 10 11 8 11 9 5 13 9 13 9 10 9 8 59 33 15 21 37 29 25
54 56 55 56 52 50 52 54 54 48 51 48 50 50 51 50 44 41 21 21 15 28 36 51 51 51 47 40 33 12 12 17 6 6 8 8 8 7 14 8 4 5 8 10 8 8 21 47 36 55 26 5 15 25
47 48 47 47 45 43 45 47 49 52 52 53 50 52 46 48 48 33 24 14 15 22 37 21 13 16 15 23 28 14 8 10 11 13 8 5 7 5 8 7 11 4 9 7 17 7 28 36 57 57 20 22 36 42
50 49 48 48 43 42 41 46 49 47 45 46 52 46 42 44 36 31 24 11 15 14 12 11 15 23 22 25 31 40 34 24 25 20 9 7 6 1 7 10 6 9 20 15 7 12 36 21 57 42 29 38 49 57
49 49 49 48 47 46 40 41 43 44 42 46 44 33 34 39 34 26 26 24 21 15 11 28 44 8 4 15 22 27 32 24 16 8 8 7 7 7 8 7 1 9 8 9 7 22 15 27 51 25 32 31 37 65
48 48 48 49 49 46 44 45 48 48 39 33 31 32 34 34 30 15 6 4 13 31 9 9 16 18 10 14 15 20 19 17 15 8 15 5 1 9 7 6 3 11 11 19 11 32 25 23 33 24 33 43 55 76
49 50 49 49 50 48 45 44 41 42 36 37 29 29 27 30 29 17 9 7 5 20 8 14 9 5 8 14 12 12 15 10 10 9 9 9 1 7 5 5 6 16 15 16 17 13 9 27 20 30 39 47 61 66
50 51 51 50 50 47 43 41 40 37 35 36 31 25 24 25 27 26 25 21 23 16 9 7 9 10 7 10 9 8 8 7 10 9 10 10 1 5 5 6 13 9 9 15 16 15 14 13 27 35 43 47 60 61
50 50 52 51 50 45 38 36 32 33 32 28 23 21 18 17 13 10 16 19 30 17 8 10 6 5 4 13 6 4 6 6 1 7 4 7 3 3 4 13 6 4 4 5 11 12 19 25 28 32 42 52 61 56
48 48 48 50 46 41 33 30 27 28 31 27 22 12 11 10 16 15 9 18 24 14 15 11 21 13 13 8 4 2 5 4 4 1 2 6 4 1 4 1 2 5 6 7 7 15 15 21 25 30 37 45 51 55
47 45 44 45 42 35 28 18 29 28 30 25 13 12 15 19 17 9 12 12 17 10 15 17 32 19 14 12 10 1 2 3 4 2 6 3 5 3 9 6 7 9 9 4 8 14 15 20 26 32 37 44 51 56
49 46 42 37 36 34 25 15 32 31 21 13 8 11 14 13 13 9 8 10 13 8 16 16 17 25 10 9 9 7 3 2 5 2 5 4 4 7 8 7 12 9 10 13 14 20 20 19 23 31 40 46 51 54
49 48 44 33 31 33 27 20 26 31 35 12 10 6 9 9 11 11 15 9 7 12 13 20 13 12 12 12 8 6 8 7 3 5 4 4 14 16 10 15 14 13 16 17 22 23 21 24 25 29 39 43 50 53
51 51 44 37 31 31 26 22 22 42 21 11 11 9 10 11 12 14 12 7 19 11 14 21 14 11 6 9 4 8 2 3 4 5 3 8 21 26 17 18 21 19 19 20 25 25 26 29 34 38 41 46 50 53
52 53 47 44 33 30 29 24 35 51 18 12 11 11 16 24 10 6 11 19 19 14 12 11 7 9 7 5 5 4 6 8 4 3 7 15 29 31 28 24 23 25 24 25 26 24 25 30 33 35 39 42 42 42
53 52 52 31 31 30 32 38 59 57 12 11 15 11 20 10 19 17 24 26 27 19 12 12 6 6 8 5 8 10 5 4 2 5 10 27 32 33 31 29 25 26 25 24 23 25 25 24 26 30 31 30 31 31
46 48 41 24 24 26 38 57 52 23 16 11 16 29 28 8 17 20 23 25 23 27 16 8 10 7 5 6 6 5 4 3 4 6 7 26 35 36 35 33 32 31 29 26 27 25 25 28 29 30 31 29 27 27
54 44 28 15 25 47 65 45 22 15 16 25 16 22 20 26 20 17 22 26 21 34 26 7 5 10 6 5 4 3 3 1 2 4 10 30 34 34 35 36 33 31 28 26 24 23 25 27 29 29 30 30 29 29
45 35 39 37 52 54 25 23 16 11 28 17 29 19 13 24 32 36 14 14 19 17 10 8 8 7 8 7 7 6 5 6 4 7 14 34 37 37 34 30 30 31 29 28 28 24 22 24 24 29 32 35 32 30
44 42 40 47 68 30 15 11 18 12 11 16 20 19 24 27 24 29 30 25 20 12 13 9 9 9 7 3 5 6 4 6 10 11 20 35 37 37 32 31 29 29 28 26 24 25 25 24 23 27 29 33 32 32
37 45 37 64 49 24 14 12 17 12 11 14 17 32 16 23 23 21 24 29 27 13 11 18 15 15 12 5 6 6 9 10 8 6 17 36 41 40 32 27 29 29 28 28 26 25 24 22 24 26 31 32 31 30
41 37 54 72 18 18 12 20 10 7 10 10 14 22 17 25 25 28 21 23 26 30 25 26 21 20 15 13 14 15 11 14 10 9 16 30 43 44 38 35 34 31 28 26 25 25 24 23 25 27 29 29 30 29
51 55 28 22 9 18 7 18 11 11 6 8 11 9 8 10 15 23 13 28 30 30 32 26 21 17 19 12 13 15 18 17 13 13 17 26 35 39 37 36 34 31 29 27 26 26 26 28 31 30 30 32 30 28
52 17 11 22 18 12 10 11 12 10 7 7 8 8 11 11 16 13 12 20 22 24 25 22 19 18 17 18 19 19 20 18 15 14 18 27 35 38 36 37 34 30 26 28 30 30 30 29 33 32 32 33 32 29
12 8 13 8 13 11 10 11 7 6 8 13 12 6 8 12 8 9 9 19 21 22 19 17 20 23 21 20 19 19 20 18 16 17 21 27 32 34 35 34 33 31 30 33 35 35 35 34 34 32 33 33 33 30
4 9 13 16 11 8 8 8 13 13 9 10 10 7 9 6 6 6 4 2 7 11 16 19 22 22 19 17 20 21 18 15 14 17 22 27 32 39 41 42 40 35 35 33 39 43 41 38 36 35 33 32 33 30
6 7 11 9 8 9 7 9 13 10 11 9 10 12 10 8 10 6 9 6 3 5 7 11 16 21 18 21 17 17 17 13 12 12 16 25 25 28 39 44 45 40 43 38 40 44 42 39 35 34 31 29 32 36
3 3 8 16 10 11 7 10 9 9 5 7 9 10 7 4 5 7 5 5 7 3 6 10 18 21 20 22 21 20 18 14 10 10 10 15 20 23 25 32 39 45 41 39 37 43 41 35 32 28 26 26 26 30
4 10 11 11 5 5 2 2 4 5 2 6 5 5 4 7 6 6 3 8 11 5 4 14 22 27 29 24 21 18 16 12 9 8 10 12 17 25 28 30 39 45 48 46 43 40 40 35 30 25 21 20 19 21
7 3 6 7 5 3 6 5 9 9 11 10 3 7 9 7 3 4 8 9 6 6 9 18 25 28 30 24 20 17 13 9 4 2 5 7 12 18 30 35 44 38 46 43 43 44 43 39 34 29 23 19 19 20
4 3 6 5 4 10 10 9 8 7 3 5 8 8 6 3 2 3 7 9 2 8 17 23 23 22 22 18 16 14 12 8 7 4 1 7 9 16 29 42 43 39 44 43 42 41 39 37 30 26 27 26 24 22
5 4 4 6 7 5 4 4 5 4 3 2 3 5 4 4 2 4 14 5 8 17 22 21 20 19 18 15 12 9 10 4 5 6 3 7 12 19 31 31 41 35 34 38 38 36 37 35 32 30 27 27 27 27
4 6 4 4 5 7 6 5 5 3 2 1 4 3 2 1 1 3 8 11 18 17 19 20 22 22 21 17 14 9 9 6 8 5 6 8 28 24 33 30 30 39 32 27 27 28 31 33 32 29 26 21 21 24
Wind_Direction_500mb
291 292 293 294 295 296 294 291 292 293 296 301 308 308 310 306 310 301 293 296 244 270 289 265 265 273 280 267 283 321 327 14 312 347 348 354 310 356 302 282 335 325 332 360 328 335 350 355 346 4 306 299 322 32
297 296 295 293 297 298 297 293 288 284 284 294 295 300 301 306 305 298 291 293 259 252 271 286 277 263 252 255 284 303 283 322 320 314 358 305 307 313 317 323 345 340 10 313 334 336 337 325 313 315 344 81 41 77
304 306 306 299 295 302 308 304 295 282 277 282 293 287 297 307 301 286 275 245 278 287 303 281 286 271 288 275 231 240 268 307 320 338 311 284 295 337 323 13 304 136 33 277 321 60 334 324 355 2 74 79 93 98
299 301 304 308 301 300 307 311 310 300 289 281 287 278 291 301 289 275 265 277 256 290 283 283 284 281 280 252 235 240 260 293 305 296 286 309 298 217 313 314 298 12 308 326 262 344 330 340 1 7 83 98 97 100
299 298 297 298 298 295 296 303 313 310 291 284 283 276 296 298 282 263 272 277 239 240 290 296 308 311 180 221 239 241 242 259 288 286 272 303 309 293 254 280 193 0 351 339 349 325 311 303 352 34 88 97 104 114
300 301 301 297 292 294 293 292 304 309 313 303 293 287 301 295 279 256 290 280 219 206 287 295 311 285 237 239 250 230 230 236 248 288 279 304 325 290 308 308 80 339 307 292 282 315 324 338 20 81 104 117 107 110
298 301 302 303 299 292 291 293 300 305 303 305 293 287 284 273 261 230 209 200 196 185 257 279 279 259 246 253 238 225 210 234 260 271 257 300 257 272 296 282 5 335 343 351 332 314 353 37 46 98 117 118 113 110
296 297 300 304 303 298 291 294 293 307 305 308 299 265 254 255 268 263 227 237 229 198 240 272 278 275 197 241 232 213 229 231 225 268 263 270 270 239 257 301 326 310 345 20 35 49 70 83 92 104 123 127 117 117
297 298 300 303 306 301 289 287 289 301 299 308 270 248 242 241 230 226 207 230 211 200 260 236 261 309 299 258 276 213 207 242 173 268 262 290 326 236 276 312 314 330 329 43 60 69 84 97 102 109 125 126 124 121
299 299 299 303 304 302 290 281 292 308 303 258 232 230 236 220 186 196 150 158 186 218 232 251 248 253 300 270 246 166 229 289 269 5 281 255 265 321 183 120 60 131 143 90 72 79 89 97 112 123 122 129 134 133
303 298 294 299 305 302 290 279 300 278 255 219 216 231 216 185 170 202 204 185 197 230 218 238 235 230 221 260 324 256 311 216 266 181 291 249 279 106 149 134 141 132 110 72 104 109 114 125 129 134 139 143 145 142
306 303 296 290 303 302 296 259 298 282 240 214 227 214 189 192 206 219 201 201 214 242 192 214 213 206 220 227 255 188 273 198 261 271 272 270 67 126 140 145 163 142 118 105 125 125 117 123 139 143 145 147 146 143
303 302 296 278 292 295 289 265 285 269 234 226 216 233 223 197 219 213 200 190 221 205 201 190 187 191 188 217 242 253 241 208 178 245 250 340 129 147 137 137 137 126 112 105 119 123 123 123 134 146 145 146 145 144
296 298 290 268 275 283 272 281 269 234 192 205 198 225 223 195 230 207 213 171 227 246 192 196 174 208 183 197 249 252 82 224 235 236 289 84 157 151 141 135 137 131 122 110 106 114 121 128 135 138 142 145 144 142
288 291 284 271 266 272 257 265 244 205 197 210 211 231 219 241 265 248 227 241 247 233 196 199 213 226 182 232 208 302 232 242 259 13 17 116 153 154 152 142 142 135 127 122 120 114 116 125 127 132 138 141 144 142
284 288 280 271 260 253 244 225 201 195 211 230 228 249 239 254 251 239 249 243 220 218 213 226 190 201 192 230 207 221 266 264 40 21 67 148 155 157 158 157 152 146 138 133 134 137 139 140 143 143 144 150 152 154
275 264 275 255 251 239 227 206 193 193 222 225 235 231 246 259 249 235 253 240 212 214 212 213 200 168 123 216 224 206 254 27 27 71 128 164 163 164 163 161 157 153 146 143 139 142 142 146 152 151 152 155 159 163
255 251 229 271 229 203 180 187 182 207 233 235 242 234 222 238 253 248 232 234 215 214 211 222 155 199 210 223 213 188 236 59 58 103 156 167 165 165 166 166 167 165 163 161 161 158 157 161 162 165 166 164 161 163
242 234 223 234 208 191 181 196 199 235 229 246 238 236 218 244 239 234 252 220 214 222 205 207 228 222 216 211 275 271 254 255 176 138 161 171 169 167 164 167 170 171 172 172 170 171 170 168 170 169 171 170 170 170
223 230 222 226 214 186 173 191 194 240 239 224 220 223 217 228 232 227 227 223 213 203 206 212 213 193 187 218 248 282 280 178 157 146 159 174 177 174 174 172 172 170 165 166 168 169 166 167 173 174 177 177 177 180
234 229 237 193 190 188 192 185 204 233 238 222 223 212 216 227 234 213 201 198 208 221 220 223 228 219 199 213 238 226 198 187 198 210 180 179 180 179 179 176 174 173 175 174 177 182 180 181 180 180 179 179 181 182
228 218 173 186 187 190 212 209 221 225 225 248 196 202 204 203 212 212 191 199 221 224 234 246 238 217 220 234 236 212 206 190 190 186 169 177 179 181 183 182 176 179 182 183 182 183 179 181 176 174 174 177 174 176
175 165 169 169 186 192 232 198 202 199 232 219 183 198 228 215 199 166 212 223 226 221 226 230 234 218 227 212 207 203 197 190 193 189 183 183 187 185 181 181 181 180 180 182 179 177 176 176 168 161 165 164 165 169
155 130 147 167 191 194 192 192 205 198 223 205 203 210 186 176 166 210 228 213 209 206 208 210 210 208 205 209 215 208 201 194 197 193 190 184 182 185 185 184 184 184 183 179 174 171 171 165 167 166 168 168 169 172
113 149 150 162 192 203 195 170 183 180 215 200 190 205 164 174 200 205 222 223 209 207 209 198 203 209 215 210 199 194 190 193 207 211 201 192 188 185 186 186 186 185 179 174 175 171 169 171 169 171 175 178 182 185
118 175 186 179 164 190 181 164 184 199 185 181 201 177 184 195 216 228 171 152 184 184 198 210 211 209 213 204 190 193 197 198 204 206 201 197 197 194 189 186 184 186 185 183 178 175 173 176 177 182 187 191 193 192
181 170 189 199 180 161 207 197 173 173 176 183 173 172 184 205 208 122 133 68 150 195 227 226 204 204 198 182 176 172 173 177 182 199 200 197 205 205 200 198 198 198 187 183 185 184 184 186 190 196 202 207 212 213
40 127 149 157 186 208 177 156 164 183 152 151 172 188 195 222 94 76 92 32 19 314 258 212 195 176 168 169 165 157 154 154 163 160 167 188 200 202 202 197 201 195 182 184 188 191 193 196 199 204 212 217 221 219
161 138 149 164 173 167 165 98 105 104 133 192 212 157 92 79 83 99 60 9 4 24 114 145 151 156 153 149 151 157 160 152 160 190 224 222 209 211 201 198 196 196 210 199 193 191 195 195 203 208 213 215 213 212
119 137 158 152 161 114 84 46 88 98 85 100 98 147 129 115 105 53 23 4 33 103 135 146 146 153 159 162 162 165 171 173 179 240 292 277 251 215 198 191 180 184 184 190 196 196 199 205 213 219 219 206 204 210
126 136 135 133 92 85 90 113 110 89 64 55 41 48 80 99 122 59 360 343 318 160 155 154 151 157 161 164 169 178 187 207 213 216 314 323 316 223 192 191 180 177 186 186 189 194 201 203 210 216 213 212 216 215
132 145 155 153 128 106 112 139 150 173 177 145 65 31 15 17 4 23 339 73 155 170 165 157 162 153 153 151 149 151 147 150 201 198 306 337 301 214 185 185 192 168 177 181 186 195 199 204 208 209 217 222 225 230
120 137 129 133 160 175 182 213 223 192 174 98 54 7 106 350 91 315 22 119 122 125 130 136 139 139 133 132 131 124 106 131 144 126 17 20 44 159 153 174 157 163 164 174 182 191 200 204 207 210 217 227 232 245
Wind_Speed_850mb
65 66 64 64 62 61 60 58 55 48 51 51 50 47 51 48 45 35 21 19 12 17 42 29 23 30 27 25 13 34 22 15 7 13 10 11 8 11 9 5 13 9 13 9 10 9 8 59 33 15 21 37 29 25
54 56 55 56 52 50 52 54 54 48 51 48 50 50 51 50 44 41 21 21 15 28 36 51 51 51 47 40 33 12 12 17 6 6 8 8 8 7 14 8 4 5 8 10 8 8 21 47 36 55 26 5 15 25
47 48 47 47 45 43 45 47 49 52 52 53 50 52 46 48 48 33 24 14 15 22 37 21 13 16 15 23 28 14 8 10 11 13 8 5 7 5 8 7 11 4 9 7 17 7 28 36 57 57 20 22 36 42
50 49 48 48 43 42 41 46 49 47 45 46 52 46 42 44 36 31 24 11 15 14 12 11 15 23 22 25 31 40 34 24 25 20 9 7 6 1 7 10 6 9 20 15 7 12 36 21 57 42 29 38 49 57
49 49 49 48 47 46 40 41 43 44 42 46 44 33 34 39 34 26 26 24 21 15 11 28 44 8 4 15 22 27 32 24 16 8 8 7 7 7 8 7 1 9 8 9 7 22 15 27 51 25 32 31 37 65
48 48 48 49 49 46 44 45 48 48 39 33 31 32 34 34 30 15 6 4 13 31 9 9 16 18 10 14 15 20 19 17 15 8 15 5 1 9 7 6 3 11 11 19 11 32 25 23 33 24 33 43 55 76
49 50 49 49 50 48 45 44 41 42 36 37 29 29 27 30 29 17 9 7 5 20 8 14 9 5 8 14 12 12 15 10 10 9 9 9 1 7 5 5 6 16 15 16 17 13 9 27 20 30 39 47 61 66
50 51 51 50 50 47 43 41 40 37 35 36 31 25 24 25 27 26 25 21 23 16 9 7 9 10 7 10 9 8 8 7 10 9 10 10 1 5 5 6 13 9 9 15 16 15 14 13 27 35 43 47 60 61
50 50 52 51 50 45 38 36 32 33 32 28 23 21 18 17 13 10 16 19 30 17 8 10 6 5 4 13 6 4 6 6 1 7 4 7 3 3 4 13 6 4 4 5 11 12 19 25 28 32 42 52 61 56
48 48 48 50 46 41 33 30 27 28 31 27 22 12 11 10 16 15 9 18 24 14 15 11 21 13 13 8 4 2 5 4 4 1 2 6 4 1 4 1 2 5 6 7 7 15 15 21 25 30 37 45 51 55
47 45 44 45 42 35 28 18 29 28 30 25 13 12 15 19 17 9 12 12 17 10 15 17 32 19 14 12 10 1 2 3 4 2 6 3 5 3 9 6 7 9 9 4 8 14 15 20 26 32 37 44 51 56
49 46 42 37 36 34 25 15 32 31 21 13 8 11 14 13 13 9 8 10 13 8 16 16 17 25 10 9 9 7 3 2 5 2 5 4 4 7 8 7 12 9 10 13 14 20 20 19 23 31 40 46 51 54
49 48 44 33 31 33 27 20 26 31 35 12 10 6 9 9 11 11 15 9 7 12 13 20 13 12 12 12 8 6 8 7 3 5 4 4 14 16 10 15 14 13 16 17 22 23 21 24 25 29 39 43 50 53
51 51 44 37 31 31 26 22 22 42 21 11 11 9 10 11 12 14 12 7 19 11 14 21 14 11 6 9 4 8 2 3 4 5 3 8 21 26 17 18 21 19 19 20 25 25 26 29 34 38 41 46 50 53
52 53 47 44 33 30 29 24 35 51 18 12 11 11 16 24 10 6 11 19 19 14 12 11 7 9 7 5 5 4 6 8 4 3 7 15 29 31 28 24 23 25 24 25 26 24 25 30 33 35 39 42 42 42
53 52 52 31 31 30 32 38 59 57 12 11 15 11 20 10 19 17 24 26 27 19 12 12 6 6 8 5 8 10 5 4 2 5 10 27 32 33 31 29 25 26 25 24 23 25 25 24 26 30 31 30 31 31
46 48 41 24 24 26 38 57 52 23 16 11 16 29 28 8 17 20 23 25 23 27 16 8 10 7 5 6 6 5 4 3 4 6 7 26 35 36 35 33 32 31 29 26 27 25 25 28 29 30 31 29 27 27
54 44 28 15 25 47 65 45 22 15 16 25 16 22 20 26 20 17 22 26 21 34 26 7 5 10 6 5 4 3 3 1 2 4 10 30 34 34 35 36 33 31 28 26 24 23 25 27 29 29 30 30 29 29
45 35 39 37 52 54 25 23 16 11 28 17 29 19 13 24 32 36 14 14 19 17 10 8 8 7 8 7 7 6 5 6 4 7 14 34 37 37 34 30 30 31 29 28 28 24 22 24 24 29 32 35 32 30
44 42 40 47 68 30 15 11 18 12 11 16 20 19 24 27 24 29 30 25 20 12 13 9 9 9 7 3 5 6 4 6 10 11 20 35 37 37 32 31 29 29 28 26 24 25 25 24 23 27 29 33 32 32
37 45 37 64 49 24 14 12 17 12 11 14 17 32 16 23 23 21 24 29 27 13 11 18 15 15 12 5 6 6 9 10 8 6 17 36 41 40 32 27 29 29 28 28 26 25 24 22 24 26 31 32 31 30
41 37 54 72 18 18 12 20 10 7 10 10 14 22 17 25 25 28 21 23 26 30 25 26 21 20 15 13 14 15 11 14 10 9 16 30 43 44 38 35 34 31 28 26 25 25 24 23 25 27 29 29 30 29
51 55 28 22 9 18 7 18 11 11 6 8 11 9 8 10 15 23 13 28 30 30 32 26 21 17 19 12 13 15 18 17 13 13 17 26 35 39 37 36 34 31 29 27 26 26 26 28 31 30 30 32 30 28
52 17 11 22 18 12 10 11 12 10 7 7 8 8 11 11 16 13 12 20 22 24 25 22 19 18 17 18 19 19 20 18 15 14 18 27 35 38 36 37 34 30 26 28 30 30 30 29 33 32 32 33 32 29
12 8 13 8 13 11 10 11 7 6 8 13 12 6 8 12 8 9 9 19 21 22 19 17 20 23 21 20 19 19 20 18 16 17 21 27 32 34 35 34 33 31 30 33 35 35 35 34 34 32 33 33 33 30
4 9 13 16 11 8 8 8 13 13 9 10 10 7 9 6 6 6 4 2 7 11 16 19 22 22 19 17 20 21 18 15 14 17 22 27 32 39 41 42 40 35 35 33 39 43 41 38 36 35 33 32 33 30
6 7 11 9 8 9 7 9 13 10 11 9 10 12 10 8 10 6 9 6 3 5 7 11 16 21 18 21 17 17 17 13 12 12 16 25 25 28 39 44 45 40 43 38 40 44 42 39 35 34 31 29 32 36
3 3 8 16 10 11 7 10 9 9 5 7 9 10 7 4 5 7 5 5 7 3 6 10 18 21 20 22 21 20 18 14 10 10 10 15 20 23 25 32 39 45 41 39 37 43 41 35 32 28 26 26 26 30
4 10 11 11 5 5 2 2 4 5 2 6 5 5 4 7 6 6 3 8 11 5 4 14 22 27 29 24 21 18 16 12 9 8 10 12 17 25 28 30 39 45 48 46 43 40 40 35 30 25 21 20 19 21
7 3 6 7 5 3 6 5 9 9 11 10 3 7 9 7 3 4 8 9 6 6 9 18 25 28 30 24 20 17 13 9 4 2 5 7 12 18 30 35 44 38 46 43 43 44 43 39 34 29 23 19 19 20
4 3 6 5 4 10 10 9 8 7 3 5 8 8 6 3 2 3 7 9 2 8 17 23 23 22 22 18 16 14 12 8 7 4 1 7 9 16 29 42 43 39 44 43 42 41 39 37 30 26 27 26 24 22
5 4 4 6 7 5 4 4 5 4 3 2 3 5 4 4 2 4 14 5 8 17 22 21 20 19 18 15 12 9 10 4 5 6 3 7 12 19 31 31 41 35 34 38 38 36 37 35 32 30 27 27 27 27
4 6 4 4 5 7 6 5 5 3 2 1 4 3 2 1 1 3 8 11 18 17 19 20 22 22 21 17 14 9 9 6 8 5 6 8 28 24 33 30 30 39 32 27 27 28 31 33 32 29 26 21 21 24
Wind_Direction_850mb
291 292 293 294 295 296 294 291 292 293 296 301 308 308 310 306 310 301 293 296 244 270 289 265 265 273 280 267 283 321 327 14 312 347 348 354 310 356 302 282 335 325 332 360 328 335 350 355 346 4 306 299 322 32
297 296 295 293 297 298 297 293 288 284 284 294 295 300 301 306 305 298 291 293 259 252 271 286 277 263 252 255 284 303 283 322 320 314 358 305 307 313 317 323 345 340 10 313 334 336 337 325 313 315 344 81 41 77
304 306 306 299 295 302 308 304 295 282 277 282 293 287 297 307 301 286 275 245 278 287 303 281 286 271 288 275 231 240 268 307 320 338 311 284 295 337 323 13 304 136 33 277 321 60 334 324 355 2 74 79 93 98
299 301 304 308 301 300 307 311 310 300 289 281 287 278 291 301 289 275 265 277 256 290 283 283 284 281 280 252 235 240 260 293 305 296 286 309 298 217 313 314 298 12 308 326 262 344 330 340 1 7 83 98 97 100
299 298 297 298 298 295 296 303 313 310 291 284 283 276 296 298 282 263 272 277 239 240 290 296 308 311 180 221 239 241 242 259 288 286 272 303 309 293 254 280 193 0 351 339 349 325 311 303 352 34 88 97 104 114
300 301 301 297 292 294 293 292 304 309 313 303 293 287 301 295 279 256 290 280 219 206 287 295 311 285 237 239 250 230 230 236 248 288 279 304 325 290 308 308 80 339 307 292 282 315 324 338 20 81 104 117 107 110
298 301 302 303 299 292 291 293 300 305 303 305 293 287 284 273 261 230 209 200 196 185 257 279 279 259 246 253 238 225 210 234 260 271 257 300 257 272 296 282 5 335 343 351 332 314 353 37 46 98 117 118 113 110
296 297 300 304 303 298 291 294 293 307 305 308 299 265 254 255 268 263 227 237 229 198 240 272 278 275 197 241 232 213 229 231 225 268 263 270 270 239 257 301 326 310 345 20 35 49 70 83 92 104 123 127 117 117
297 298 300 303 306 301 289 287 289 301 299 308 270 248 242 241 230 226 207 230 211 200 260 236 261 309 299 258 276 213 207 242 173 268 262 290 326 236 276 312 314 330 329 43 60 69 84 97 102 109 125 126 124 121
299 299 299 303 304 302 290 281 292 308 303 258 232 230 236 220 186 196 150 158 186 218 232 251 248 253 300 270 246 166 229 289 269 5 281 255 265 321 183 120 60 131 143 90 72 79 89 97 112 123 122 129 134 133
303 298 294 299 305 302 290 279 300 278 255 219 216 231 216 185 170 202 204 185 197 230 218 238 235 230 221 260 324 256 311 216 266 181 291 249 279 106 149 134 141 132 110 72 104 109 114 125 129 134 139 143 145 142
306 303 296 290 303 302 296 259 298 282 240 214 227 214 189 192 206 219 201 201 214 242 192 214 213 206 220 227 255 188 273 198 261 271 272 270 67 126 140 145 163 142 118 105 125 125 117 123 139 143 145 147 146 143
303 302 296 278 292 295 289 265 285 269 234 226 216 233 223 197 219 213 200 190 221 205 201 190 187 191 188 217 242 253 241 208 178 245 250 340 129 147 137 137 137 126 112 105 119 123 123 123 134 146 145 146 145 144
296 298 290 268 275 283 272 281 269 234 192 205 198 225 223 195 230 207 213 171 227 246 192 196 174 208 183 197 249 252 82 224 235 236 289 84 157 151 141 135 137 131 122 110 106 114 121 128 135 138 142 145 144 142
288 291 284 271 266 272 257 265 244 205 197 210 211 231 219 241 265 248 227 241 247 233 196 199 213 226 182 232 208 302 232 242 259 13 17 116 153 154 152 142 142 135 127 122 120 114 116 125 127 132 138 141 144 142
284 288 280 271 260 253 244 225 201 195 211 230 228 249 239 254 251 239 249 243 220 218 213 226 190 201 192 230 207 221 266 264 40 21 67 148 155 157 158 157 152 146 138 133 134 137 139 140 143 143 144 150 152 154
275 264 275 255 251 239 227 206 193 193 222 225 235 231 246 259 249 235 253 240 212 214 212 213 200 168 123 216 224 206 254 27 27 71 128 164 163 164 163 161 157 153 146 143 139 142 142 146 152 151 152 155 159 163
255 251 229 271 229 203 180 187 182 207 233 235 242 234 222 238 253 248 232 234 215 214 211 222 155 199 210 223 213 188 236 59 58 103 156 167 165 165 166 166 167 165 163 161 161 158 157 161 162 165 166 164 161 163
242 234 223 234 208 191 181 196 199 235 229 246 238 236 218 244 239 234 252 220 214 222 205 207 228 222 216 211 275 271 254 255 176 138 161 171 169 167 164 167 170 171 172 172 170 171 170 168 170 169 171 170 170 170
223 230 222 226 214 186 173 191 194 240 239 224 220 223 217 228 232 227 227 223 213 203 206 212 213 193 187 218 248 282 280 178 157 146 159 174 177 174 174 172 172 170 165 166 168 169 166 167 173 174 177 177 177 180
234 229 237 193 190 188 192 185 204 233 238 222 223 212 216 227 234 213 201 198 208 221 220 223 228 219 199 213 238 226 198 187 198 210 180 179 180 179 179 176 174 173 175 174 177 182 180 181 180 180 179 179 181 182
228 218 173 186 187 190 212 209 221 225 225 248 196 202 204 203 212 212 191 199 221 224 234 246 238 217 220 234 236 212 206 190 190 186 169 177 179 181 183 182 176 179 182 183 182 183 179 181 176 174 174 177 174 176
175 165 169 169 186 192 232 198 202 199 232 219 183 198 228 215 199 166 212 223 226 221 226 230 234 218 227 212 207 203 197 190 193 189 183 183 187 185 181 181 181 180 180 182 179 177 176 176 168 161 165 164 165 169
155 130 147 167 191 194 192 192 205 198 223 205 203 210 186 176 166 210 228 213 209 206 208 210 210 208 205 209 215 208 201 194 197 193 190 184 182 185 185 184 184 184 183 179 174 171 171 165 167 166 168 168 169 172
113 149 150 162 192 203 195 170 183 180 215 200 190 205 164 174 200 205 222 223 209 207 209 198 203 209 215 210 199 194 190 193 207 211 201 192 188 185 186 186 186 185 179 174 175 171 169 171 169 171 175 178 182 185
118 175 186 179 164 190 181 164 184 199 185 181 201 177 184 195 216 228 171 152 184 184 198 210 211 209 213 204 190 193 197 198 204 206 201 197 197 194 189 186 184 186 185 183 178 175 173 176 177 182 187 191 193 192
181 170 189 199 180 161 207 197 173 173 176 183 173 172 184 205 208 122 133 68 150 195 227 226 204 204 198 182 176 172 173 177 182 199 200 197 205 205 200 198 198 198 187 183 185 184 184 186 190 196 202 207 212 213
40 127 149 157 186 208 177 156 164 183 152 151 172 188 195 222 94 76 92 32 19 314 258 212 195 176 168 169 165 157 154 154 163 160 167 188 200 202 202 197 201 195 182 184 188 191 193 196 199 204 212 217 221 219
161 138 149 164 173 167 165 98 105 104 133 192 212 157 92 79 83 99 60 9 4 24 114 145 151 156 153 149 151 157 160 152 160 190 224 222 209 211 201 198 196 196 210 199 193 191 195 195 203 208 213 215 213 212
119 137 158 152 161 114 84 46 88 98 85 100 98 147 129 115 105 53 23 4 33 103 135 146 146 153 159 162 162 165 171 173 179 240 292 277 251 215 198 191 180 184 184 190 196 196 199 205 213 219 219 206 204 210
126 136 135 133 92 85 90 113 110 89 64 55 41 48 80 99 122 59 360 343 318 160 155 154 151 157 161 164 169 178 187 207 213 216 314 323 316 223 192 191 180 177 186 186 189 194 201 203 210 216 213 212 216 215
132 145 155 153 128 106 112 139 150 173 177 145 65 31 15 17 4 23 339 73 155 170 165 157 162 153 153 151 149 151 147 150 201 198 306 337 301 214 185 185 192 168 177 181 186 195 199 204 208 209 217 222 225 230
120 137 129 133 160 175 182 213 223 192 174 98 54 7 106 350 91 315 22 119 122 125 130 136 139 139 133 132 131 124 106 131 144 126 17 20 44 159 153 174 157 163 164 174 182 191 200 204 207 210 217 227 232 245